Smith Mills, KY

7:24 PM CDT on August 25, 2016 (GMT -0500)
Henderson City-County

Weather History for KEHR - March, 2013

Change the Weather History Date:

Sunday, March 3, 2013

  Actual Average Record
Temperature  
Mean Temperature 32 °F -  
Max Temperature 39 °F 54 °F 77 °F (1983)
Min Temperature 24 °F 36 °F 3 °F (1943)
Degree Days  
Heating Degree Days 34    
Moisture  
Dew Point 14 °F    
Average Humidity 53    
Maximum Humidity 64    
Minimum Humidity 38    
Precipitation  
Precipitation 0.00 in - - ()
Sea Level Pressure  
Sea Level Pressure 30.15 in    
Wind  
Wind Speed 7 mph (NW)    
Max Wind Speed 12 mph    
Max Gust Speed -    
Visibility 10 miles    
Events      
Averages and records for this station are not official NWS values.
T = Trace of Precipitation, MM = Missing Value Source: NWS Daily Summary

Daily Weather History Graph

Daily Weather History Graph

Search for Another Location

Airport or City:

Trip Planner

Search our weather history database for the weather conditions in past years. The results will help you decide how hot, cold, wet, or windy it might be!

Date:

Astronomy

Mar. 03, 2013 Rise Set
Actual Time 6:19 AM CST 5:46 PM CST
Civil Twilight 5:52 AM CST 6:12 PM CST
Nautical Twilight 5:22 AM CST 6:43 PM CST
Astronomical Twilight 4:52 AM CST 7:13 PM CST
Moon No Moon Rise 9:41 AM CST (3/3)
Length of Visible Light 12h 20m
Length of Day
11h 27m
Waning Gibbous, 63% of the Moon is Illuminated
Mar 3
Waning Gibbous
Mar 4
Last Quarter
Mar 11
New
Mar 19
First Quarter
Mar 27
Full

Hourly Weather History & Observations

Time (CST) Temp. Windchill Dew Point Humidity Pressure Visibility Wind Dir Wind Speed Gust Speed Precip Events Conditions
12:35 AM 28.4 °F 18.5 °F 12.2 °F 51% 30.18 in 10.0 mi NW 11.5 mph - N/A   Overcast
12:55 AM 28.4 °F 19.7 °F 12.2 °F 51% 30.18 in 10.0 mi NW 9.2 mph - N/A   Overcast
1:55 AM 26.6 °F 19.1 °F 12.2 °F 55% 30.17 in 10.0 mi NW 6.9 mph - N/A   Overcast
2:15 AM 26.6 °F 18.2 °F 12.2 °F 55% 30.17 in 10.0 mi NW 8.1 mph - N/A   Overcast
2:35 AM 26.6 °F 17.5 °F 12.2 °F 55% 30.17 in 10.0 mi NW 9.2 mph - N/A   Overcast
2:55 AM 26.6 °F 20.0 °F 12.2 °F 55% 30.17 in 10.0 mi NW 5.8 mph - N/A   Mostly Cloudy
3:15 AM 26.6 °F 18.2 °F 12.2 °F 55% 30.16 in 10.0 mi NW 8.1 mph - N/A   Partly Cloudy
3:35 AM 24.8 °F 17.9 °F 12.2 °F 59% 30.16 in 10.0 mi NW 5.8 mph - N/A   Partly Cloudy
3:55 AM 24.8 °F 16.9 °F 12.2 °F 59% 30.16 in 10.0 mi NW 6.9 mph - N/A   Clear
4:15 AM 24.8 °F 17.9 °F 12.2 °F 59% 30.16 in 10.0 mi NW 5.8 mph - N/A   Clear
4:35 AM 24.8 °F 17.9 °F 12.2 °F 59% 30.17 in 10.0 mi WNW 5.8 mph - N/A   Clear
4:55 AM 24.8 °F 19.1 °F 12.2 °F 59% 30.16 in 10.0 mi WNW 4.6 mph - N/A   Clear
5:15 AM 24.8 °F 17.9 °F 12.2 °F 59% 30.16 in 10.0 mi WNW 5.8 mph - N/A   Clear
5:35 AM 24.8 °F 17.9 °F 12.2 °F 59% 30.17 in 10.0 mi NW 5.8 mph - N/A   Clear
6:15 AM 24.8 °F 17.9 °F 12.2 °F 59% 30.17 in 10.0 mi NW 5.8 mph - N/A   Clear
6:35 AM 24.8 °F 17.9 °F 12.2 °F 59% 30.18 in 10.0 mi NW 5.8 mph - N/A   Clear
6:55 AM 24.8 °F 16.9 °F 12.2 °F 59% 30.18 in 10.0 mi NW 6.9 mph - N/A   Clear
7:15 AM 24.8 °F 16.1 °F 12.2 °F 59% 30.19 in 10.0 mi NW 8.1 mph - N/A   Clear
7:35 AM 24.8 °F 16.9 °F 12.2 °F 59% 30.19 in 10.0 mi NNW 6.9 mph - N/A   Clear
7:55 AM 26.6 °F 19.1 °F 12.2 °F 55% 30.19 in 10.0 mi NNW 6.9 mph - N/A   Clear
8:15 AM 26.6 °F 19.1 °F 12.2 °F 55% 30.19 in 10.0 mi NW 6.9 mph - N/A   Clear
8:35 AM 26.6 °F 18.2 °F 10.4 °F 51% 30.19 in 10.0 mi NW 8.1 mph - N/A   Clear
8:55 AM 28.4 °F 19.7 °F 10.4 °F 47% 30.19 in 10.0 mi WNW 9.2 mph - N/A   Clear
9:15 AM 28.4 °F 22.2 °F 12.2 °F 51% 30.19 in 10.0 mi NW 5.8 mph - N/A   Clear
9:35 AM 28.4 °F 20.4 °F 12.2 °F 51% 30.18 in 10.0 mi NW 8.1 mph - N/A   Clear
9:56 AM 30.2 °F 22.6 °F 12.2 °F 47% 30.19 in 10.0 mi NW 8.1 mph - N/A   Clear
10:15 AM 30.2 °F 23.4 °F 12.2 °F 47% 30.19 in 10.0 mi WNW 6.9 mph - N/A   Clear
10:35 AM 30.2 °F 22.6 °F 12.2 °F 47% 30.18 in 10.0 mi WNW 8.1 mph - N/A   Clear
10:55 AM 33.8 °F 27.0 °F 14.0 °F 44% 30.17 in 10.0 mi NW 8.1 mph - N/A   Clear
11:15 AM 32.0 °F 24.2 °F 12.2 °F 44% 30.17 in 10.0 mi NW 9.2 mph - N/A   Clear
11:35 AM 33.8 °F 28.6 °F 12.2 °F 41% 30.17 in 10.0 mi NNW 5.8 mph - N/A   Clear
11:55 AM 33.8 °F 27.7 °F 12.2 °F 41% 30.16 in 10.0 mi WNW 6.9 mph - N/A   Clear
12:15 PM 35.6 °F 29.9 °F 12.2 °F 38% 30.15 in 10.0 mi NW 6.9 mph - N/A   Clear
12:35 PM 33.8 °F 27.7 °F 12.2 °F 41% 30.15 in 10.0 mi NNW 6.9 mph - N/A   Clear
12:55 PM 35.6 °F 28.6 °F 12.2 °F 38% 30.14 in 10.0 mi NNW 9.2 mph - N/A   Clear
1:15 PM 35.6 °F 31.7 °F 15.8 °F 44% 30.13 in 10.0 mi NW 4.6 mph - N/A   Clear
1:55 PM 37.4 °F 31.4 °F 15.8 °F 41% 30.13 in 10.0 mi NW 8.1 mph - N/A   Clear
2:15 PM 37.4 °F 32.1 °F 15.8 °F 41% 30.13 in 10.0 mi West 6.9 mph - N/A   Clear
2:35 PM 37.4 °F 33.8 °F 15.8 °F 41% 30.12 in 10.0 mi WNW 4.6 mph - N/A   Clear
2:55 PM 37.4 °F 32.1 °F 14.0 °F 38% 30.11 in 10.0 mi NW 6.9 mph - N/A   Scattered Clouds
3:15 PM 39.2 °F 33.6 °F 17.6 °F 42% 30.11 in 10.0 mi SSW 8.1 mph - N/A   Scattered Clouds
3:35 PM 39.2 °F 35.0 °F 19.4 °F 45% 30.11 in 10.0 mi WSW 5.8 mph - N/A   Clear
4:15 PM 37.4 °F 32.1 °F 17.6 °F 45% 30.11 in 10.0 mi NW 6.9 mph - N/A   Scattered Clouds
4:35 PM 37.4 °F 33.8 °F 17.6 °F 45% 30.10 in 10.0 mi West 4.6 mph - N/A   Overcast
5:15 PM 37.4 °F 32.8 °F 15.8 °F 41% 30.11 in 10.0 mi West 5.8 mph - N/A   Overcast
5:35 PM 35.6 °F 31.7 °F 15.8 °F 44% 30.10 in 10.0 mi WSW 4.6 mph - N/A   Overcast
5:55 PM 33.8 °F - 17.6 °F 52% 30.10 in 10.0 mi Calm Calm - N/A   Overcast
6:35 PM 33.8 °F - 17.6 °F 52% 30.10 in 10.0 mi Calm Calm - N/A   Mostly Cloudy
6:55 PM 32.0 °F - 19.4 °F 60% 30.11 in 10.0 mi Calm Calm - N/A   Partly Cloudy
7:35 PM 30.2 °F 26.7 °F 17.6 °F 60% 30.10 in 10.0 mi ESE 3.5 mph - N/A   Clear
7:55 PM 30.2 °F - 17.6 °F 60% 30.10 in 10.0 mi Calm Calm - N/A   Mostly Cloudy
8:15 PM 30.2 °F - 17.6 °F 60% 30.11 in 10.0 mi Calm Calm - N/A   Overcast
8:35 PM 30.2 °F - 17.6 °F 60% 30.11 in 10.0 mi Calm Calm - N/A   Mostly Cloudy
8:55 PM 30.2 °F - 19.4 °F 64% 30.11 in 10.0 mi Calm Calm - N/A   Scattered Clouds
9:15 PM 28.4 °F - 17.6 °F 64% 30.11 in 10.0 mi Calm Calm - N/A   Clear
9:35 PM 28.4 °F - 17.6 °F 64% 30.11 in 10.0 mi Calm Calm - N/A   Clear
9:55 PM 28.4 °F - 17.6 °F 64% 30.11 in 10.0 mi Calm Calm - N/A   Clear
10:15 PM 28.4 °F - 17.6 °F 64% 30.11 in 10.0 mi Calm Calm - N/A   Clear
10:35 PM 28.4 °F - 17.6 °F 64% 30.11 in 10.0 mi Calm Calm - N/A   Clear
10:55 PM 28.4 °F - 17.6 °F 64% 30.12 in 10.0 mi Calm Calm - N/A   Clear
11:15 PM 28.4 °F - 17.6 °F 64% 30.12 in 10.0 mi Calm Calm - N/A   Clear
11:55 PM 28.4 °F 24.6 °F 17.6 °F 64% 30.11 in 10.0 mi ESE 3.5 mph - N/A   Scattered Clouds